Location: La Junie
(44.7428°N, 2.1773°E)
Time: 15:21:26
(UTC+00:00)

NOSS 3-3 (A) - Pass Details

Date: 15 May 2026
Orbit: 691 x 1518 km, 63.4° (Epoch: 11 January)

Event Time Altitude Azimuth Distance (km) Brightness Sun altitude
Rises 19:55:11 0° 211° (SSW) 3,100 6.6 -7.2°
Reaches altitude 10° 19:57:23 10° 210° (SSW) 2,230 5.9 -7.5°
Maximum altitude 20:02:25 79° 125° (SE) 827 3.6 -8.2°
Drops below altitude 10° 20:08:25 10° 39° (NE) 2,643 6.3 -9.1°
Sets 20:11:13 0° 39° (NE) 3,721 7.1 -9.4°
